Location: Krasnoyarskiy Pitomnik
(51.1333°N, 71.6167°E)
Time: 08:29:26
(UTC+00:00)

Tiangong - Visible Passes

Search period start: 27 February 2024 00:00
Search period end: 08 March 2024 00:00
Orbit: 375 x 385 km, 41.5° (Epoch: 26 February)

Date Brightness Start Highest point End Pass type
(mag) Time Alt. Az. Time Alt. Az. Time Alt. Az.
01 Mar 0.5 14:48:23 10° SSW 14:48:45 11° S 14:48:45 11° S visible
03 Mar 0.1 14:21:46 10° SSW 14:23:26 14° S 14:24:09 13° SSE visible
04 Mar 0.3 14:56:26 10° SW 14:57:45 14° SSW 14:57:45 14° SSW visible
05 Mar 0.2 13:55:04 10° SW 13:56:51 14° S 13:58:38 10° SE visible
06 Mar 0.4 14:29:57 10° SW 14:31:24 13° S 14:32:37 11° SSE visible
